"2009-01-06 00:00:30",515881,12.5,337,4.423,0.697,6.296,100.9428,1.705,2.886,18.74,0,109.6,13.55,2.46,299.0
"2009-01-06 00:01:00",515882,12.29,330,6.826,0.937,6.363,100.9436,1.707,2.862,18.65,0,109.6,13.55,2.46,292.0
"2009-01-06 00:01:30",515883,13.94,333.4,4.169,0.943,6.68,100.9419,1.703,2.87,19.2,0,109.6,13.56,2.46,295.4
"2009-01-06 00:02:00",515884,14.53,330.4,4.143,0.83,6.914,100.9196,1.646,2.877,19.35,0,109.6,13.56,2.40,292.4
"2009-01-06 00:02:30",515885,13.95,331.1,5.093,0.696,7.162,100.9102,1.622,2.867,19.31,0,109.6,13.56,2.38,293.1
"2009-01-06 00:03:00",515886,13.94,326.2,5.022,1.105,7.116,100.9097,1.62,2.864,19.57,0,109.6,13.56,2.38,288.2
"2009-01-06 00:03:30",515887,12.79,323.6,4.706,0.663,7.263,100.8992,1.594,2.837,19.74,0,109.6,13.56,2.35,285.6
"2009-01-06 00:04:00",515888,14.04,320,6.176,0.78,7.196,100.8783,1.54,2.806,19.82,0,109.6,13.56,2.30,282.0
"2009-01-06 00:04:30",515889,15.15,322.6,5.866,2.053,7.311,100.8652,1.507,2.814,19.87,0,109.6,13.56,2.26,284.6
"2009-01-06 00:05:00",515890,15.91,315,6.347,1.21,7.408,100.8471,1.461,2.764,19.86,0,109.6,13.56,2.22,277.0
"2009-01-06 00:05:30",515891,16.2,321.9,5.826,0.995,7.561,100.8406,1.444,2.736,19.9,0,109.6,13.56,2.20,283.9
"2009-01-06 00:06:00",515892,14.5,324.2,6.514,0.8,7.415,100.8194,1.39,2.704,19.96,0,109.7,13.56,2.15,286.2
"2009-01-06 00:06:30",515893,15.36,321,6.568,1.05,7.367,100.8098,1.366,2.68,20.16,0,109.6,13.56,2.12,283.0
"2009-01-06 00:07:00",515894,14.69,327.4,9.35,1.212,7.29,100.7872,1.308,2.641,20.38,0,109.6,13.56,2.06,289.4
"2009-01-06 00:07:30",515895,12.99,316.7,8.21,1.739,7.291,100.7693,1.262,2.578,20.63,0,109.6,13.56,2.02,278.7
"2009-01-06 00:08:00",515896,12.84,317.7,4.477,2.371,7.129,100.7382,1.183,2.51,20.82,0,109.6,13.56,1.94,279.7
"2009-01-06 00:08:30",515897,14.43,312.3,7.411,1.225,7.367,100.7212,1.14,2.475,20.64,0,109.6,13.56,1.90,274.3
"2009-01-06 00:09:00",515898,13.87,311.9,7.763,1.259,7.157,100.7076,1.105,2.431,20.7,0,109.5,13.56,1.86,273.9
"2009-01-06 00:09:30",515899,13.09,303.7,7.573,0.762,7.163,100.7079,1.106,2.41,20.77,0,109.6,13.56,1.86,265.7
"2009-01-06 00:10:00",515900,13.7,314.2,8.99,0.891,7.085,100.7057,1.1,2.379,20.72,0,109.6,13.56,1.86,276.2
"2009-01-06 00:10:30",515901,12.84,310.6,8.95,0.699,7.008,100.6949,1.073,2.364,20.77,0,109.5,13.56,1.83,272.6
"2009-01-06 00:11:00",515902,14.4,312.3,6.016,1.732,7.077,100.6884,1.056,2.35,20.79,0,109.6,13.56,1.81,274.3
"2009-01-06 00:11:30",515903,16.84,324.1,5.571,1.81,7.536,100.6915,1.064,2.313,20.86,0,109.6,13.56,1.82,286.1
"2009-01-06 00:12:00",515904,19.38,327.7,4.186,1.207,7.675,100.6983,1.081,2.323,20.79,0,109.6,13.56,1.84,289.7
"2009-01-06 00:12:30",515905,19.26,329.2,4.273,0.877,7.97,100.7114,1.114,2.346,20.67,0,109.6,13.55,1.87,291.2
"2009-01-06 00:13:00",515906,16.37,323.9,4.62,1.332,7.833,100.7111,1.114,2.351,20.74,0,109.5,13.55,1.87,285.9
"2009-01-06 00:13:30",515907,16.23,320.3,5.392,0.979,7.713,100.7122,1.117,2.356,21.05,0,109.5,13.55,1.87,282.3
"2009-01-06 00:14:00",515908,16.21,316.6,5.357,0.985,7.611,100.7128,1.118,2.348,21.34,0,109.6,13.55,1.87,278.6
"2009-01-06 00:14:30",515909,18.22,321.5,8.62,1.433,7.733,100.71,1.111,2.34,21.4,0,109.5,13.55,1.87,283.5
"2009-01-06 00:15:00",515910,21.85,321.5,4.553,0.809,8.17,100.7063,1.101,2.327,20.87,0,109.5,13.55,1.86,283.5
"2009-01-06 00:15:30",515911,23.3,324.1,4.326,1.943,8.26,100.7125,1.117,2.331,20.3,0,109.5,13.55,1.87,286.1
"2009-01-06 00:16:00",515912,24.97,321.8,4.56,1.16,8.23,100.7131,1.119,2.338,20.11,0,109.6,13.55,1.87,283.8
"2009-01-06 00:16:30",515913,23.83,318.6,4.509,1.008,8.39,100.7131,1.119,2.348,19.96,0,109.5,13.55,1.87,280.6
"2009-01-06 00:17:00",515914,23.2,320.4,4.051,0.686,8.56,100.7131,1.119,2.344,19.92,0,109.5,13.55,1.87,282.4
"2009-01-06 00:17:30",515915,22.32,318.2,4.12,0.893,8.55,100.7162,1.127,2.36,19.93,0,109.5,13.56,1.88,280.2
"2009-01-06 00:18:00",515916,22.19,319.8,4.127,0.819,8.13,100.7159,1.126,2.37,19.97,0,109.5,13.56,1.88,281.8
"2009-01-06 00:18:30",515917,22.79,321.2,3.716,1.302,8.15,100.7131,1.119,2.366,20.05,0,109.5,13.56,1.87,283.2
"2009-01-06 00:19:00",515918,24.62,321.1,4.219,1.093,8.07,100.7131,1.119,2.358,20.23,0,109.5,13.56,1.87,283.1
"2009-01-06 00:19:30",515919,25.43,319.4,4.053,0.781,8.33,100.7131,1.119,2.349,20.4,0,109.5,13.56,1.87,281.4
"2009-01-06 00:20:00",515920,25.45,322.4,4.56,1.042,8.29,100.7128,1.118,2.36,20.46,0,109.5,13.56,1.87,284.4
"2009-01-06 00:20:30",515921,23.78,325.8,4.552,0.983,8.3,100.7071,1.104,2.37,20.56,0,109.5,13.56,1.86,287.8
"2009-01-06 00:21:00",515922,23.73,327.3,3.967,0.865,8.45,100.6944,1.071,2.331,20.58,0,109.5,13.56,1.83,289.3
"2009-01-06 00:21:30",515923,22.9,328.4,3.646,0.82,8.77,100.6817,1.039,2.318,20.54,0,109.5,13.56,1.79,290.4
"2009-01-06 00:22:00",515924,23.44,329.3,4.23,0.685,8.38,100.6791,1.032,2.317,20.55,0,109.5,13.56,1.79,291.3
"2009-01-06 00:22:30",515925,25.55,329.5,3.929,0.879,8.35,100.6791,1.032,2.311,20.55,0,109.5,13.56,1.79,291.5
"2009-01-06 00:23:00",515926,26.96,330.5,4.195,0.613,8.55,100.6684,1.005,2.284,20.52,0,109.5,13.56,1.76,292.5
"2009-01-06 00:23:30",515927,25.55,333.2,3.617,1.345,8.66,100.6624,0.99,2.268,20.54,0,109.5,13.56,1.75,295.2
"2009-01-06 00:24:00",515928,26.24,328.7,4.72,0.929,8.76,100.6607,0.985,2.258,20.55,0,109.5,13.56,1.74,290.7
"2009-01-06 00:24:30",515929,25.7,327.5,4.886,1.177,8.75,100.6616,0.987,2.28,20.42,0,109.5,13.56,1.74,289.5
"2009-01-06 00:25:00",515930,25.31,328,3.78,0.815,8.85,100.6653,0.997,2.261,20.41,0,109.5,13.56,1.75,290.0
"2009-01-06 00:25:30",515931,24.64,331.6,3.544,0.917,8.74,100.6726,1.016,2.26,20.42,0,109.5,13.56,1.77,293.6
"2009-01-06 00:26:00",515932,25.38,328.2,5.082,0.857,8.91,100.6783,1.03,2.268,20.37,0,109.5,13.56,1.79,290.2
"2009-01-06 00:26:30",515933,27.04,327.1,4.291,1.017,8.87,100.6791,1.032,2.284,20.41,0,109.5,13.56,1.79,289.1
"2009-01-06 00:27:00",515934,28.04,326.8,3.786,0.911,8.78,100.6791,1.032,2.294,20.48,0,109.5,13.56,1.79,288.8
"2009-01-06 00:27:30",515935,27.64,325.9,2.74,0.948,8.86,100.6791,1.032,2.288,20.43,0,109.5,13.56,1.79,287.9
"2009-01-06 00:28:00",515936,27.5,325.7,3.498,0.963,8.82,100.6899,1.06,2.298,20.43,0,109.6,13.56,1.82,287.7
"2009-01-06 00:28:30",515937,25.82,327.4,4.342,1.13,8.76,100.6958,1.075,2.322,20.47,0,109.5,13.56,1.83,289.4
"2009-01-06 00:29:00",515938,25.7,324.2,4.235,0.976,8.84,100.7066,1.102,2.32,20.5,0,109.5,13.56,1.86,286.2
"2009-01-06 00:29:30",515939,25.83,325.5,3.481,0.778,8.67,100.7122,1.117,2.347,20.56,0,109.5,13.56,1.87,287.5
"2009-01-06 00:30:00",515940,25.64,323.4,4.379,0.669,8.28,100.7128,1.118,2.361,20.61,0,109.6,13.55,1.87,285.4
"2009-01-06 00:30:30",515941,24.74,324.8,4.52,0.696,8.58,100.7134,1.12,2.373,20.69,0,109.5,13.55,1.88,286.8
"2009-01-06 00:31:00",515942,23.85,325.6,4.219,0.85,8.55,100.7128,1.118,2.369,20.69,0,109.5,13.55,1.87,287.6
"2009-01-06 00:31:30",515943,24.54,326.1,3.365,1.049,8.55,100.7057,1.1,2.368,20.76,0,109.5,13.55,1.86,288.1
"2009-01-06 00:32:00",515944,24.58,324.6,4.143,0.642,8.37,100.6972,1.078,2.347,20.87,0,109.5,13.56,1.83,286.6
"2009-01-06 00:32:30",515945,24.3,322.8,4.641,0.672,8.44,100.6913,1.063,2.367,20.95,0,109.5,13.56,1.82,284.8
"2009-01-06 00:33:00",515946,22.73,323,4.04,1.049,8.29,100.6802,1.035,2.351,20.99,0,109.5,13.56,1.79,285.0
"2009-01-06 00:33:30",515947,20.95,321.9,3.149,1.4,8.33,100.6788,1.031,2.327,21.06,0,109.5,13.56,1.79,283.9
"2009-01-06 00:34:00",515948,22.78,321.6,4.086,0.826,8.42,100.6647,0.995,2.32,21.05,0,109.5,13.56,1.75,283.6
"2009-01-06 00:34:30",515949,22.99,323.7,3.714,0.865,8.16,100.6517,0.962,2.315,21.09,0,109.5,13.56,1.72,285.7
"2009-01-06 00:35:00",515950,22.17,323.1,4.473,0.654,7.999,100.6452,0.946,2.275,21.32,0,109.5,13.56,1.70,285.1
"2009-01-06 00:35:30",515951,21.35,324.1,3.483,0.815,8.34,100.6384,0.928,2.256,21.42,0,109.5,13.56,1.68,286.1
"2009-01-06 00:36:00",515952,21.6,325.6,4.112,1.076,8.28,100.6276,0.901,2.233,21.36,0,109.5,13.56,1.66,287.6
"2009-01-06 00:36:30",515953,21.86,325.1,4.155,0.742,8.06,100.614,0.866,2.224,21.48,0,109.5,13.56,1.62,287.1
"2009-01-06 00:37:00",515954,21.67,327.8,3.835,0.914,8.07,100.6024,0.837,2.183,21.6,0,109.5,13.56,1.59,289.8
"2009-01-06 00:37:30",515955,21.1,327.1,3.124,0.971,8.17,100.5846,0.791,2.173,21.61,0,109.5,13.56,1.55,289.1
"2009-01-06 00:38:00",515956,22,325.7,3.415,0.691,7.919,100.5787,0.776,2.123,21.85,0,109.5,13.56,1.53,287.7
"2009-01-06 00:38:30",515957,21.65,325.3,4.126,0.715,8.17,100.5674,0.747,2.112,21.93,0,109.5,13.56,1.50,287.3
"2009-01-06 00:39:00",515958,20.86,327.5,3.466,0.765,8.07,100.5541,0.713,2.084,21.96,0,109.5,13.56,1.47,289.5
"2009-01-06 00:39:30",515959,20.33,330.3,3.253,0.84,8.18,100.5473,0.696,2.048,21.93,0,109.5,13.56,1.45,292.3
"2009-01-06 00:40:00",515960,20.74,328.5,4.193,0.732,8.03,100.5326,0.658,2.002,21.98,0,109.5,13.56,1.41,290.5
"2009-01-06 00:40:30",515961,20.1,331.2,4.009,0.687,8.1,100.5161,0.617,2.002,22.09,0,109.5,13.56,1.37,293.2
"2009-01-06 00:41:00",515962,19.84,328.5,4.012,0.754,8.03,100.5182,0.622,1.974,22.1,0,109.5,13.56,1.38,290.5
"2009-01-06 00:41:30",515963,19.49,330.6,3.297,0.817,8.06,100.5111,0.604,1.932,22.17,0,109.5,13.56,1.36,292.6
"2009-01-06 00:42:00",515964,19.88,332,2.856,0.992,7.791,100.4947,0.562,1.898,22.23,0,109.5,13.56,1.32,294.0
"2009-01-06 00:42:30",515965,20.58,331,4.062,0.918,7.973,100.4859,0.539,1.905,22.5,0,109.5,13.57,1.29,293.0
"2009-01-06 00:43:00",515966,19.97,331.4,3.664,0.773,7.86,100.4867,0.542,1.867,22.55,0,109.5,13.57,1.30,293.4
"2009-01-06 00:43:30",515967,20.56,329.2,3.667,0.833,8.02,100.4788,0.521,1.848,22.59,0,109.5,13.57,1.28,291.2
"2009-01-06 00:44:00",515968,19.19,329.3,4.012,0.897,7.899,100.4698,0.498,1.828,22.63,0,109.6,13.57,1.25,291.3
"2009-01-06 00:44:30",515969,18.73,330.3,4.279,0.792,7.892,100.4616,0.477,1.809,22.74,0,109.5,13.56,1.23,292.3
"2009-01-06 00:45:00",515970,19.8,326.9,4.549,0.778,8,100.4556,0.462,1.799,22.9,0,109.5,13.56,1.22,288.9
"2009-01-06 00:45:30",515971,18.84,328.2,4.825,0.933,8.05,100.4551,0.461,1.769,22.96,0,109.5,13.56,1.21,290.2
"2009-01-06 00:46:00",515972,18.82,331.3,4.417,0.892,7.923,100.4571,0.466,1.751,22.94,0,109.6,13.56,1.22,293.3
"2009-01-06 00:46:30",515973,18.54,331.9,3.855,0.963,7.813,100.4517,0.452,1.758,23.01,0,109.5,13.56,1.21,293.9
"2009-01-06 00:47:00",515974,17.83,331.4,4.885,1.049,7.751,100.4415,0.426,1.727,23.17,0,109.5,13.56,1.18,293.4
"2009-01-06 00:47:30",515975,18.62,328.1,3.321,0.789,7.811,100.4339,0.407,1.716,23.25,0,109.5,13.56,1.16,290.1
"2009-01-06 00:48:00",515976,19.05,329.9,4.347,0.71,7.74,100.4262,0.387,1.69,23.29,0,109.5,13.56,1.14,291.9
"2009-01-06 00:48:30",515977,19.27,333.1,3.996,0.735,7.877,100.4265,0.388,1.69,23.38,0,109.5,13.56,1.14,295.1
"2009-01-06 00:49:00",515978,18.75,334.7,3.339,0.86,7.703,100.4268,0.389,1.672,23.47,0,109.5,13.56,1.14,296.7
"2009-01-06 00:49:30",515979,19.28,335.5,3.7,0.793,7.792,100.4231,0.379,1.652,23.51,0,109.5,13.56,1.13,297.5
"2009-01-06 00:50:00",515980,19.23,334.2,3.46,0.566,7.554,100.4098,0.345,1.634,23.73,0,109.6,13.56,1.10,296.2
"2009-01-06 00:50:30",515981,18.82,335.7,4.03,0.648,7.811,100.3996,0.319,1.64,23.59,0,109.5,13.57,1.07,297.7
"2009-01-06 00:51:00",515982,19.1,335.6,3.944,0.959,7.733,100.3957,0.309,1.603,23.58,0,109.5,13.57,1.06,297.6
"2009-01-06 00:51:30",515983,19.36,334.8,3.496,0.83,7.626,100.394,0.305,1.593,23.7,0,109.5,13.57,1.06,296.8
"2009-01-06 00:52:00",515984,19.35,333.6,3.36,0.899,7.599,100.3974,0.314,1.564,23.83,0,109.5,13.57,1.07,295.6
"2009-01-06 00:52:30",515985,18.85,333.9,4.218,0.717,7.802,100.3974,0.314,1.583,23.82,0,109.5,13.57,1.07,295.9
"2009-01-06 00:53:00",515986,18.76,334.1,3.97,0.786,7.761,100.3979,0.315,1.549,23.84,0,109.5,13.57,1.07,296.1
"2009-01-06 00:53:30",515987,19.2,335.5,3.241,0.661,7.854,100.3965,0.311,1.551,23.85,0,109.5,13.57,1.06,297.5
"2009-01-06 00:54:00",515988,18.57,333.9,4.277,0.739,7.8,100.3886,0.291,1.529,23.84,0,109.5,13.57,1.04,295.9
"2009-01-06 00:54:30",515989,17.78,336.9,3.224,0.847,7.658,100.3906,0.296,1.529,23.85,0,109.5,13.57,1.05,298.9
"2009-01-06 00:55:00",515990,17.1,335.1,4.043,0.735,7.631,100.388,0.29,1.527,23.91,0,109.5,13.57,1.04,297.1
"2009-01-06 00:55:30",515991,17.57,336.4,3.39,0.958,7.58,100.3815,0.273,1.523,24.02,0,109.5,13.57,1.03,298.4
"2009-01-06 00:56:00",515992,18.41,337.9,4.223,0.541,7.456,100.3812,0.273,1.509,24.02,0,109.5,13.57,1.03,299.9
"2009-01-06 00:56:30",515993,18.57,335.6,4.522,0.81,7.558,100.3801,0.27,1.511,24.03,0,109.5,13.57,1.02,297.6
"2009-01-06 00:57:00",515994,18.67,334.7,3.622,0.862,7.522,100.3804,0.27,1.499,24.01,0,109.5,13.57,1.02,296.7
"2009-01-06 00:57:30",515995,18.96,336.1,2.877,1.231,7.571,100.381,0.272,1.506,24.07,0,109.5,13.57,1.02,298.1
"2009-01-06 00:58:00",515996,19.53,338.4,3.981,1.104,7.677,100.381,0.272,1.512,23.98,0,109.5,13.57,1.02,300.4
"2009-01-06 00:58:30",515997,19.35,337.7,4.159,0.64,7.694,100.381,0.272,1.497,24.05,0,109.5,13.57,1.02,299.7
"2009-01-06 00:59:00",515998,18.39,333.9,4.134,0.725,7.66,100.381,0.272,1.503,24.11,0,109.5,13.57,1.02,295.9
"2009-01-06 00:59:30",515999,17.83,334.4,2.479,0.901,7.545,100.3832,0.278,1.485,24.19,0,109.5,13.57,1.03,296.4
"2009-01-06 01:00:00",516000,17.41,331.8,3.854,0.586,7.628,100.3832,0.278,1.494,24.27,0,109.5,13.57,1.03,293.8
"2009-01-06 01:00:30",516001,17.93,332.2,4.476,0.733,7.691,100.377,0.262,1.523,24.32,0,109.5,13.57,1.01,294.2
"2009-01-06 01:01:00",516002,19.04,329.1,4.656,0.999,7.542,100.3728,0.251,1.5,24.33,0,109.5,13.57,1.00,291.1
"2009-01-06 01:01:30",516003,20.11,333.9,3.825,1.267,7.527,100.3691,0.242,1.471,24.39,0,109.5,13.57,0.99,295.9
"2009-01-06 01:02:00",516004,18.72,332.3,3.315,0.727,7.611,100.3699,0.244,1.465,24.46,0,109.5,13.57,1.00,294.3
"2009-01-06 01:02:30",516005,19.11,332.2,4.101,1.229,7.715,100.3705,0.245,1.475,24.47,0,109.5,13.57,1.00,294.2
"2009-01-06 01:03:00",516006,21.75,330.7,6.104,1.062,7.473,100.3677,0.238,1.464,24.51,0,109.5,13.57,0.99,292.7
"2009-01-06 01:03:30",516007,20.9,328.9,3.698,0.865,7.701,100.3535,0.202,1.453,24.48,0,109.5,13.57,0.95,290.9
"2009-01-06 01:04:00",516008,21.44,336.6,4.89,0.643,7.702,100.3524,0.199,1.444,24.45,0,109.6,13.57,0.95,298.6
"2009-01-06 01:04:30",516009,22.02,333.6,5.002,1.067,7.731,100.351,0.195,1.445,24.49,0,109.5,13.57,0.95,295.6
"2009-01-06 01:05:00",516010,23.17,330,3.798,1.213,7.615,100.3436,0.177,1.428,24.6,0,109.5,13.56,0.93,292.0
"2009-01-06 01:05:30",516011,23.22,330.2,3.745,1.008,7.851,100.3388,0.164,1.417,24.78,0,109.5,13.57,0.92,292.2
"2009-01-06 01:06:00",516012,22.82,331.3,3.593,1.055,7.768,100.3391,0.165,1.399,24.89,0,109.5,13.57,0.92,293.3
"2009-01-06 01:06:30",516013,19.95,326.1,4.17,1.027,7.592,100.3357,0.156,1.411,25.09,0,109.5,13.57,0.91,288.1
"2009-01-06 01:07:00",516014,19.72,331,3.506,1.089,7.48,100.3204,0.117,1.392,25.2,0,109.5,13.57,0.87,293.0
"2009-01-06 01:07:30",516015,19.17,332.9,4.007,1.201,7.801,100.3071,0.083,1.357,25.22,0,109.5,13.57,0.84,294.9
"2009-01-06 01:08:00",516016,19.64,330.5,4.604,0.83,7.518,100.304,0.076,1.361,25.3,0,109.5,13.57,0.83,292.5
"2009-01-06 01:08:30",516017,20.11,330.8,3.954,0.991,7.443,100.287,0.032,1.344,25.46,0,109.5,13.57,0.78,292.8
"2009-01-06 01:09:00",516018,21.16,334.4,4.126,0.896,7.625,100.2729,-0.004,1.313,25.47,0,109.5,13.57,0.75,296.4
"2009-01-06 01:09:30",516019,20.57,332.8,2.671,0.917,7.991,100.2717,-0.007,1.284,25.07,0,109.5,13.57,0.75,294.8
"2009-01-06 01:10:00",516020,19.68,331,3.667,0.846,7.865,100.272,-0.006,1.275,24.98,0,109.5,13.57,0.75,293.0
"2009-01-06 01:10:30",516021,19.02,333.6,4.42,1.035,7.853,100.2765,0.006,1.284,24.88,0,109.5,13.57,0.76,295.6
"2009-01-06 01:11:00",516022,19.24,331.6,3.502,0.853,7.605,100.287,0.032,1.271,24.9,0,109.5,13.58,0.78,293.6
"2009-01-06 01:11:30",516023,19.13,334.7,4.08,0.946,7.817,100.2904,0.041,1.285,25.01,0,109.5,13.58,0.79,296.7
"2009-01-06 01:12:00",516024,18.98,333,3.569,0.882,7.629,100.2964,0.056,1.267,24.9,0,109.5,13.58,0.81,295.0
"2009-01-06 01:12:30",516025,20.26,329.5,4.501,1.269,7.594,100.3046,0.077,1.283,24.97,0,109.5,13.58,0.83,291.5
"2009-01-06 01:13:00",516026,21.53,329.5,4.272,1.061,7.617,100.3023,0.071,1.282,25.27,0,109.5,13.58,0.82,291.5
"2009-01-06 01:13:30",516027,21.75,332,3.694,1.034,7.855,100.302,0.07,1.265,25.2,0,109.5,13.58,0.82,294.0
"2009-01-06 01:14:00",516028,21.39,329.2,3.247,0.941,7.616,100.2949,0.052,1.277,25.37,0,109.5,13.58,0.80,291.2
"2009-01-06 01:14:30",516029,20.21,333.7,4.621,1.598,7.797,100.2975,0.059,1.276,25.17,0,109.5,13.58,0.81,295.7
"2009-01-06 01:15:00",516030,19.81,330.2,4.827,1.43,7.905,100.3006,0.067,1.279,25.07,0,109.5,13.58,0.82,292.2
"2009-01-06 01:15:30",516031,19.95,325.2,5.592,0.951,7.936,100.3054,0.079,1.276,24.88,0,109.5,13.58,0.83,287.2
"2009-01-06 01:16:00",516032,20.76,326.5,3.102,1.11,7.774,100.3057,0.08,1.289,24.79,0,109.5,13.58,0.83,288.5
"2009-01-06 01:16:30",516033,20.14,326.3,3.43,0.954,7.859,100.3057,0.08,1.302,24.71,0,109.5,13.58,0.83,288.3
"2009-01-06 01:17:00",516034,20.59,327.1,4.285,0.923,7.991,100.3122,0.096,1.304,24.67,0,109.5,13.58,0.85,289.1
"2009-01-06 01:17:30",516035,19.41,327.1,3.787,0.924,8.09,100.3244,0.128,1.315,24.52,0,109.5,13.57,0.88,289.1
"2009-01-06 01:18:00",516036,19.69,322,3.725,0.799,7.723,100.3363,0.158,1.341,24.63,0,109.5,13.57,0.91,284.0
"2009-01-06 01:18:30",516037,19.56,326.6,5.734,0.993,8.07,100.3397,0.166,1.35,24.39,0,109.5,13.57,0.92,288.6
"2009-01-06 01:19:00",516038,18.37,326.7,4.421,0.872,8.05,100.3445,0.179,1.361,24.19,0,109.5,13.57,0.93,288.7
"2009-01-06 01:19:30",516039,18.66,324.2,5.03,0.998,8.02,100.3572,0.211,1.383,24.23,0,109.5,13.57,0.96,286.2
"2009-01-06 01:20:00",516040,18.57,326.9,5.46,1.106,7.761,100.3722,0.25,1.406,24.37,0,109.6,13.57,1.00,288.9
"2009-01-06 01:20:30",516041,18.46,326.1,3.729,1.273,7.644,100.3736,0.253,1.421,24.43,0,109.5,13.57,1.01,288.1
"2009-01-06 01:21:00",516042,16.86,322.4,4.241,0.722,7.87,100.3736,0.253,1.44,24.32,0,109.5,13.57,1.01,284.4
"2009-01-06 01:21:30",516043,18.08,322.9,3.46,1.087,7.304,100.3736,0.253,1.452,24.6,0,109.5,13.57,1.01,284.9
"2009-01-06 01:22:00",516044,19.4,324,3.857,0.74,7.121,100.3736,0.253,1.449,25.27,0,109.5,13.57,1.01,286.0
"2009-01-06 01:22:30",516045,18.18,325,4.461,1.027,7.47,100.362,0.224,1.469,25.2,0,109.5,13.57,0.98,287.0
"2009-01-06 01:23:00",516046,18.62,320.5,3.605,1.01,7.481,100.3465,0.184,1.451,25.05,0,109.5,13.58,0.94,282.5
"2009-01-06 01:23:30",516047,16.78,324.6,2.067,0.884,7.62,100.3397,0.166,1.412,24.86,0,109.5,13.58,0.92,286.6
"2009-01-06 01:24:00",516048,15.95,322.8,3.771,0.709,7.571,100.3397,0.166,1.429,24.76,0,109.5,13.58,0.92,284.8
"2009-01-06 01:24:30",516049,16.12,323.1,3.95,0.816,7.396,100.3397,0.166,1.434,24.77,0,109.5,13.58,0.92,285.1
"2009-01-06 01:25:00",516050,16.08,323.6,4.501,0.779,7.421,100.3397,0.166,1.422,24.81,0,109.5,13.58,0.92,285.6
"2009-01-06 01:25:30",516051,16.6,324.3,3.381,0.766,7.262,100.3397,0.166,1.409,24.95,0,109.5,13.58,0.92,286.3
"2009-01-06 01:26:00",516052,16.99,324.4,4.071,0.654,7.089,100.3377,0.161,1.408,25.24,0,109.5,13.58,0.91,286.4
"2009-01-06 01:26:30",516053,16.84,322.9,4.038,0.954,7.17,100.3213,0.12,1.392,25.31,0,109.5,13.58,0.87,284.9
"2009-01-06 01:27:00",516054,16.5,329.4,4.281,1.046,7.551,100.3074,0.084,1.382,25.23,0,109.5,13.58,0.84,291.4
"2009-01-06 01:27:30",516055,16.05,329.1,2.782,0.689,7.509,100.3057,0.08,1.357,25.1,0,109.5,13.58,0.83,291.1
"2009-01-06 01:28:00",516056,16.69,331.9,5.963,0.879,7.404,100.3057,0.08,1.338,24.97,0,109.5,13.58,0.83,293.9
"2009-01-06 01:28:30",516057,16.07,332.8,4.893,0.792,7.561,100.3097,0.09,1.361,24.68,0,109.5,13.58,0.84,294.8
"2009-01-06 01:29:00",516058,16.48,327.9,4.1,0.871,7.188,100.3162,0.107,1.346,24.99,0,109.5,13.58,0.86,289.9
"2009-01-06 01:29:30",516059,17.16,329.5,3.685,0.844,7.267,100.3085,0.087,1.335,25.31,0,109.5,13.58,0.84,291.5
"2009-01-06 01:30:00",516060,17.09,329.5,3.379,0.773,7.161,100.3057,0.08,1.315,25.47,0,109.5,13.58,0.83,291.5
"2009-01-06 01:30:30",516061,17.15,326.7,3.08,0.975,7.191,100.3057,0.08,1.334,25.53,0,109.5,13.58,0.83,288.7
"2009-01-06 01:31:00",516062,17.06,329.3,3.487,0.691,7.298,100.3054,0.079,1.318,25.44,0,109.5,13.58,0.83,291.3
"2009-01-06 01:31:30",516063,17.46,329.2,4.54,0.782,7.404,100.293,0.047,1.306,25.68,0,109.5,13.58,0.80,291.2
"2009-01-06 01:32:00",516064,17.71,328.9,4.074,0.904,7.336,100.2731,-0.003,1.289,25.73,0,109.5,13.58,0.75,290.9
"2009-01-06 01:32:30",516065,16.83,327.8,3.914,0.828,7.462,100.2717,-0.007,1.284,25.71,0,109.5,13.58,0.75,289.8
"2009-01-06 01:33:00",516066,16.99,329.1,4.407,0.956,7.416,100.2717,-0.007,1.257,25.75,0,109.5,13.59,0.75,291.1
"2009-01-06 01:33:30",516067,16.92,329.1,2.499,0.84,7.538,100.2717,-0.007,1.255,25.66,0,109.5,13.58,0.75,291.1
"2009-01-06 01:34:00",516068,17.86,331.9,7.695,1.069,7.35,100.2717,-0.007,1.247,25.8,0,109.5,13.58,0.75,293.9
"2009-01-06 01:34:30",516069,16.68,328.8,5.133,0.919,7.387,100.2717,-0.007,1.259,25.6,0,109.5,13.57,0.75,290.8
"2009-01-06 01:35:00",516070,16.76,331.6,4.334,0.979,7.225,100.2717,-0.007,1.224,25.77,0,109.5,13.57,0.75,293.6
"2009-01-06 01:35:30",516071,17.15,331.6,4.032,0.904,7.443,100.2717,-0.007,1.234,25.89,0,109.5,13.57,0.75,293.6
"2009-01-06 01:36:00",516072,16.79,331.9,3.604,0.685,7.241,100.2672,-0.018,1.231,25.96,0,109.5,13.57,0.73,293.9
"2009-01-06 01:36:30",516073,16.89,331.8,3.479,0.763,7.212,100.2564,-0.046,1.233,26.05,0,109.5,13.57,0.71,293.8
"2009-01-06 01:37:00",516074,16.97,333.3,3.783,0.793,7.353,100.2471,-0.07,1.195,25.99,0,109.5,13.58,0.68,295.3
"2009-01-06 01:37:30",516075,16.76,335.6,3.531,0.762,7.458,100.2502,-0.062,1.193,25.76,0,109.5,13.57,0.69,297.6
"2009-01-06 01:38:00",516076,16.3,336.5,3.561,0.695,7.26,100.2536,-0.053,1.183,25.74,0,109.5,13.57,0.70,298.5
"2009-01-06 01:38:30",516077,15.96,335.6,4.011,0.905,7.245,100.2564,-0.046,1.219,25.74,0,109.5,13.58,0.71,297.6
"2009-01-06 01:39:00",516078,15.87,336.9,3.129,0.883,7.078,100.2641,-0.026,1.185,25.63,0,109.5,13.58,0.73,298.9
"2009-01-06 01:39:30",516079,15.52,340.1,3.664,0.696,7.386,100.2703,-0.01,1.197,25.55,0,109.5,13.59,0.74,302.1
"2009-01-06 01:40:00",516080,15.59,334.8,4.063,0.749,6.994,100.2715,-0.007,1.199,25.72,0,109.5,13.59,0.74,296.8
"2009-01-06 01:40:30",516081,15.45,336.6,4.212,0.944,6.988,100.2715,-0.007,1.215,25.94,0,109.5,13.59,0.74,298.6
"2009-01-06 01:41:00",516082,15.49,336.1,4.189,0.793,6.928,100.2596,-0.038,1.207,26.08,0,109.5,13.59,0.71,298.1
"2009-01-06 01:41:30",516083,15.42,338.7,2.977,0.717,7.122,100.255,-0.049,1.212,25.86,0,109.5,13.59,0.70,300.7
"2009-01-06 01:42:00",516084,15.68,338.9,3.594,0.714,7.019,100.2584,-0.041,1.194,25.73,0,109.5,13.59,0.71,300.9
"2009-01-06 01:42:30",516085,15.64,339,3.79,0.784,7,100.2652,-0.023,1.208,25.69,0,109.5,13.59,0.73,301.0
"2009-01-06 01:43:00",516086,15.57,340.6,3.496,0.755,7.018,100.2709,-0.009,1.177,25.56,0,109.5,13.59,0.74,302.6
"2009-01-06 01:43:30",516087,14.73,339.2,3.463,0.853,6.999,100.2717,-0.007,1.196,25.62,0,109.5,13.59,0.75,301.2
"2009-01-06 01:44:00",516088,14.36,338,3.589,0.664,6.757,100.2717,-0.007,1.199,25.71,0,109.5,13.59,0.75,300.0
"2009-01-06 01:44:30",516089,13.95,336.6,2.926,0.842,6.522,100.2717,-0.007,1.21,25.84,0,109.5,13.59,0.75,298.6
"2009-01-06 01:45:00",516090,15.13,337.3,3.752,0.77,6.709,100.27,-0.011,1.208,25.85,0,109.5,13.59,0.74,299.3
"2009-01-06 01:45:30",516091,14.43,339.9,2.927,0.783,6.693,100.2664,-0.02,1.204,25.79,0,109.5,13.59,0.73,301.9
"2009-01-06 01:46:00",516092,14.21,340.2,4.588,0.666,6.726,100.2573,-0.044,1.186,25.83,0,109.5,13.59,0.71,302.2
"2009-01-06 01:46:30",516093,13.69,336.6,4.156,0.821,6.656,100.2581,-0.041,1.207,25.75,0,109.5,13.59,0.71,298.6
"2009-01-06 01:47:00",516094,14.07,339.2,3.402,0.769,6.57,100.2556,-0.048,1.19,25.91,0,109.5,13.59,0.70,301.2
"2009-01-06 01:47:30",516095,14.2,339.8,1.54,0.866,6.479,100.2514,-0.059,1.186,25.96,0,109.5,13.59,0.69,301.8
"2009-01-06 01:48:00",516096,14.36,339.7,2.946,0.697,6.468,100.2485,-0.066,1.169,25.92,0,109.6,13.59,0.69,301.7
"2009-01-06 01:48:30",516097,13.94,338.5,2.599,0.832,6.463,100.2429,-0.08,1.183,25.94,0,109.5,13.59,0.67,300.5
"2009-01-06 01:49:00",516098,13.27,335.7,3.303,0.87,6.33,100.24,-0.088,1.168,25.98,0,109.5,13.59,0.66,297.7